Funafuti International Airport


Codes: NGFU/FUN
Name: Funafuti International Airport
City: Funafuti
Country: Tuvalu
Elevation: 0 ft.
Wikipedia:

Photos at Funafuti International Airport


   Photos courtesy of SpottingLog. You can add your own sightings and photos by signing up for a free trial today.



No photos found.

Weather at Funafuti International Airport


Time (UTC)DescriptionTempratureWindCloud coverageVisibilityPressureHumidity
16-Jun-2024 12:00Scattered Clouds28°C2 mph, E36%10000m1013hPa79%
16-Jun-2024 15:00Light Rain28°C4 mph, SE44%10000m1012hPa79%
16-Jun-2024 18:00Scattered Clouds28°C7 mph, SE42%10000m1012hPa77%
16-Jun-2024 21:00Broken Clouds28°C9 mph, SE70%10000m1013hPa74%
17-Jun-2024 00:00Overcast Clouds29°C9 mph, SE86%10000m1011hPa71%
17-Jun-2024 03:00Few Clouds29°C11 mph, SE23%10000m1009hPa75%
17-Jun-2024 06:00Few Clouds29°C13 mph, E14%10000m1010hPa75%
17-Jun-2024 09:00Clear Sky29°C16 mph, E8%10000m1011hPa75%
17-Jun-2024 12:00Few Clouds30°C18 mph, E15%10000m1011hPa73%
17-Jun-2024 15:00Light Rain29°C16 mph, E70%10000m1010hPa76%
17-Jun-2024 18:00Light Rain29°C18 mph, E85%10000m1011hPa76%
17-Jun-2024 21:00Light Rain29°C20 mph, E99%10000m1012hPa78%
18-Jun-2024 00:00Overcast Clouds29°C18 mph, E100%10000m1010hPa78%
18-Jun-2024 03:00Overcast Clouds29°C20 mph, E100%10000m1008hPa73%
18-Jun-2024 06:00Overcast Clouds29°C18 mph, E94%10000m1009hPa75%
18-Jun-2024 09:00Light Rain29°C18 mph, E92%10000m1010hPa76%
18-Jun-2024 12:00Light Rain29°C18 mph, E96%10000m1010hPa76%
18-Jun-2024 15:00Light Rain29°C18 mph, E99%10000m1008hPa75%
18-Jun-2024 18:00Light Rain29°C16 mph, E99%10000m1009hPa76%
18-Jun-2024 21:00Light Rain29°C16 mph, E59%10000m1010hPa76%
19-Jun-2024 00:00Light Rain29°C18 mph, E48%10000m1009hPa75%
19-Jun-2024 03:00Light Rain29°C18 mph, E47%10000m1007hPa76%
19-Jun-2024 06:00Light Rain29°C16 mph, E74%10000m1008hPa75%
19-Jun-2024 09:00Moderate Rain29°C16 mph, NE96%4172m1010hPa77%
19-Jun-2024 12:00Light Rain29°C16 mph, E98%10000m1009hPa76%
19-Jun-2024 15:00Light Rain29°C11 mph, E100%10000m1008hPa77%
19-Jun-2024 18:00Light Rain29°C13 mph, E100%10000m1009hPa77%
19-Jun-2024 21:00Light Rain29°C11 mph, E100%10000m1011hPa78%
20-Jun-2024 00:00Moderate Rain29°C13 mph, E100%10000m1009hPa77%
20-Jun-2024 03:00Light Rain29°C13 mph, E100%10000m1007hPa77%
20-Jun-2024 06:00Light Rain29°C13 mph, E70%10000m1009hPa77%
20-Jun-2024 09:00Light Rain29°C13 mph, E100%10000m1010hPa76%
20-Jun-2024 12:00Light Rain29°C13 mph, E96%10000m1010hPa75%
20-Jun-2024 15:00Light Rain29°C13 mph, E94%10000m1008hPa76%
20-Jun-2024 18:00Light Rain29°C16 mph, E83%10000m1009hPa77%
20-Jun-2024 21:00Light Rain29°C16 mph, E56%10000m1011hPa77%
21-Jun-2024 00:00Light Rain29°C16 mph, E54%10000m1009hPa76%
21-Jun-2024 03:00Few Clouds29°C16 mph, E19%10000m1007hPa75%
21-Jun-2024 06:00Light Rain29°C16 mph, E44%10000m1008hPa76%
21-Jun-2024 09:00Light Rain29°C16 mph, SE96%10000m1010hPa75%